Regional Weather Roundup
Issued by NWS Green Bay, WI

Home | Current Version | Previous Version | Text Only | Print | Product List | Glossary On
Versions: 1 2 3 4 5 6 7 8 9 10 11 12 13 14 15 16 17 18 19 20 21 22 23 24 25 26 27 28 29 30 31 32 33 34 35 36 37 38 39 40 41 42 43 44 45 46 47 48 49 50
000
ASUS43 KGRB 032111
RWRGRB

NORTH-CENTRAL AND NORTHEAST WISCONSIN REGIONAL WEATHER ROUNDUP
NATIONAL WEATHER SERVICE GREEN BAY WI
400 PM CDT MON AUG 03 2015

WIZ005-009-010>012-018-019-032200-
NORTH CENTRAL WISCONSIN

CITY           SKY/WX    TMP DP  RH WIND       PRES   REMARKS
IRONWOOD       PTSUNNY   66  54  63 NW10G21   29.81S
MANITOWISH WTR CLOUDY    67  53  59 NW12G18   29.84S
ARBOR VITAE    PTSUNNY   69  54  59 NW8G16    29.84F
EAGLE RIVER    PTSUNNY   67  49  52 W12       29.84S
LAND O LAKES   CLOUDY    65  50  57 NW6       29.85S
RHINELANDER    CLOUDY    70  51  51 NW12G18   29.85R
PHILLIPS       CLOUDY    67  55  65 NW7       29.86S
ANTIGO         PTSUNNY   70  52  53 NW14G20   29.84S
TOMAHAWK       CLOUDY    68  52  58 W12G17    29.86S
MERRILL        NOT AVBL
$$

WIZ013-073-032200-
NORTHEAST WISCONSIN

CITY           SKY/WX    TMP DP  RH WIND       PRES   REMARKS
IRON MOUNTAIN  PTSUNNY   71  51  49 NW14      29.79R
MARINETTE      PTSUNNY   73  52  46 N12       29.77S
OCONTO         CLOUDY    74  52  46 NW9       29.78S
$$

WIZ017-030-035>037-045-032200-
CENTRAL WISCONSIN

CITY           SKY/WX    TMP DP  RH WIND       PRES   REMARKS
MEDFORD        CLOUDY    69  53  57 W13G20    29.87S
WAUSAU         CLOUDY    74  51  44 NW15      29.83S
MOSINEE        NOT AVBL
MARSHFIELD     PTSUNNY   74  51  44 NW16      29.86S
WISC RAPIDS    PTSUNNY   78  48  34 NW15G25   29.86R
STEVENS POINT  CLOUDY    73  52  47 W9G16     29.85S
WAUPACA        PTSUNNY   80  48  32 W16G23    29.82S
SHAWANO        PTSUNNY   74  52  46 NW6       29.80S
CLINTONVILLE   PTSUNNY   77  46  33 W17G23    29.81S
$$

WIZ038-039-048-051-032200-
FOX VALLEY

CITY           SKY/WX    TMP DP  RH WIND       PRES   REMARKS
NWS GREEN BAY  PTSUNNY   76  53  44 W17G23    29.79F
APPLETON       PTSUNNY   75  45  33 W18G25    29.82S
OSHKOSH        PTSUNNY   78  51  38 NW14G21   29.81S
FOND DU LAC    PTSUNNY   79  51  37 NW14G21   29.82S
$$

WIZ022-050-052-032200-
EAST CENTRAL WISCONSIN

CITY           SKY/WX    TMP DP  RH WIND       PRES   REMARKS
STURGEON BAY   CLOUDY    72  52  49 W9        29.80S
MANITOWOC      CLOUDY    77  48  35 MISG      29.80S
SHEBOYGAN      MOSUNNY   78  51  38 W17       29.81S
$$

LMZ563-521-522-541>543-032200-
LAKESHORE

STATION/POSITION TIME  TEMP    WIND        PRES    VSBY  WAVE
                       AIR SEA DIR/SP/G                  HT/PER
                 (UTC) (F)     (DEG/KT/KT) (MB)    (MI)  (FT/S)
SHEBOYGAN LKSHOR 2100   76     300/ 19/ 22 1009.3F
KEWAUNEE LKSHORE 2000   75     300/  8/ 14 1008.3R
ALGOMA MARINA    2042          260/  6/ 11   N/A
NORTHPORT PIER   2000   72     230/  4/  7 1007.8S
N MID LAKE BUOY  2050   66 68  250/ 16/ 21 1007.7R         2/ 3
S GREEN BAY BUOY 2000   71 72  260/ 10/ 12 1009.8F
SISTER BAY LKSHO 2018   72     250/  9/ 10   N/A
CHAMBERS ISLAND  2000   72     250/  2/  7 1007.8S
MENOMINEE LKSHOR 2000   74     280/  8/ 12 1008.8R
$$



USA.gov is the U.S. government's official web portal to all federal, state and local government web resources and services.